STARLINK-11477, 62471

Orbit data source: Space-Track

STARLINK-11477, 62471 is a payload satellite owned by SpaceX/Seattle (US) in LEO that was launched on Tue, 31 Dec 2024 UTC via an FALCON 9 launch vehicle from the Air Force Eastern Test Range (AFETR). Payload-class satellites include a variety of spacecraft equipped with specific instruments for various scientific and technological missions. These include communications satellites like Starlink; space stations such as the ISS; scientific satellites like the Hubble; Earth observation satellites from companies like Planet Labs, Umbra, and HawkEye 360; GPS; miniature CubeSats for education and research; and military/defense satellites.

Loading next visibility...
Identifier
62471, 2024-254K
Orbit
LEO
Country
Flag of USUS
Related business
Manufacturer
SpaceX/Seattle
Mission
Operational Commercial Communications
Bus & Motor
STARLINK V2MD, Unknown motor
Mass
960 kg wet, ~910 kg dry
Launch date (UTC)
2024-12-31 (10 months ago)
Launch vehicle
FALCON 9
Launch site
Air Force Eastern Test Range (AFETR)
Object type
Payload
Rocket body
Debris
Shape & HBR
Box + 2 Pan, 18.1 m
Radar Cross Section
36.964 m², Large (>1 m²)

Expand to show TLE details & history
Last TLE update: 12 hours ago

TLE from 12 hours ago
0 STARLINK-11477
1 62471U 24254K   25302.28073523  .00182318  00000-0  13889-2 0  9993
2 62471  42.9989 295.1031 0001436 272.0602  88.0101 15.70916215 48723
Epoch: 2025-10-29T06:44Z
TLE epoch observation values (Epoch: 2025-10-29T06:44:15.523Z)
Latitude
-0.00005°
Longitude
156.18224°
Altitude
356.015 km
Speed
7.697 km/s
True Right ascension
19h 40m 24s
True Declination
0° 00' 00"
Sunlit
Object was in daylight at epoch
Visualization orbit readout
Latitude
Unknown
Longitude
Unknown
Altitude
Unknown
Speed
Unknown
Apparent Right ascension
Unknown
Apparent Declination
Unknown
Sunlit
N/A
Visualization observer readout
Local Sidereal Time
14:13:48
Azimuth
Unknown
Elevation
Unknown
Doppler factor
Unknown
Orbital elements
Apogee altitude
359.226 km
Perigee altitude
357.292 km
Semi-major axis
6,736.396 km
Eccentricity
0.00014
Inclination
42.9989°
RAAN
295.1031°
Arg. of periapsis
272.0602°
True anomaly
88.02655°
Mean anomaly
88.0101°
Eccentric anomaly
88.01832°
Mean motion
3.92556 °/min
Orbital period
91.71 mins
BSTAR
0.0013889
Loading maneuver chart data...
Computing Atmospheric mass density...
Loading historical data...
Loading historical data...
Loading historical data...
Loading historical data...
Loading historical data...
Loading historical data...
Loading historical data...

Documentation

Showing up to 5 results
|